Location: *
(34.8620°S, 39.3380°E)
Time: 10:43:56
(UTC+00:00)

Cosmos 2173 Rocket - Pass Details

Date: 27 July 2021
Orbit: 944 x 1001 km, 83.0° (Epoch: 22 September)

Event Time Altitude Azimuth Distance (km) Brightness Sun altitude
Rises 02:57:01 0° 194° (SSW) 3,702 6.8 -17.2°
Reaches altitude 10° 02:59:37 10° 199° (SSW) 2,756 6.1 -16.7°
Maximum altitude 03:05:37 47° 270° (W) 1,287 4.2 -15.5°
Drops below altitude 10° 03:11:39 10° 342° (NNW) 2,757 6.3 -14.3°
Sets 03:14:15 0° 348° (NNW) 3,703 7.1 -13.8°
